Location: Unspecified
(41.1637°N, 24.2901°E)
Time: 09:52:14
(UTC+01:00)

ISS - Pass Details

Date: 22 October 2020
Orbit: 417 x 420 km, 51.6° (Epoch: 29 October)

Event Time Altitude Azimuth Distance (km) Brightness Sun altitude
Rises 06:01:47 0° 221° (SW) 2,346 -0.3 -8.4°
Reaches altitude 10° 06:03:54 10° 215° (SW) 1,486 -1.2 -8.0°
Maximum altitude 06:07:09 50° 139° (SE) 539 -2.8 -7.4°
Drops below altitude 10° 06:10:24 10° 63° (ENE) 1,495 0.0 -6.8°
Sets 06:12:32 0° 58° (ENE) 2,362 0.9 -6.4°
